{"data":{"norad_id":64606,"epoch":"2026-09-20T05:52:12.659808Z","epoch_age_seconds":153662,"freshness":"FRESH","line1":"1 64606U 25137N   26263.24459097  .00012171  00000+0  37074-3 0  9994","line2":"2 64606  53.1597 150.7331 0001397  51.7109 308.4019 15.34401749 70412","mean_motion":15.34401749,"eccentricity":0.0001397,"inclination_deg":53.1597,"raan_deg":150.7331,"arg_perigee_deg":51.7109,"mean_anomaly_deg":308.4019,"bstar":0.00037074,"rev_number":7041,"period_min":93.847651108224,"perigee_km":461.74237716012,"apogee_km":463.6537064708,"semimajor_km":6840.8350418155,"source":"CELESTRAK","updated_at":"2026-09-21T09:00:35.366294Z"}}